Powrót do katalogu

SL-16 DEB

AktywnyLEO
NORAD 22807·DEBRIS·🇷🇺 Russia

Wystrzelony Sep 16, 1993 z Baikonur Cosmodrome

Loading…

Następne Przeloty (najbliższe 24 godziny)

TLE

ŚwieżeSource: Space-Track

Epoka: Sep 14, 2026, 08:54 UTC

1 22807U 93059F   26257.37096058  .00000008  00000-0  48419-4 0  9993
2 22807  71.0181  39.2580 0207331 299.8430  84.7756 13.72692602651790

Śledź SL-16 DEB w czasie rzeczywistym z AllMySat

Download on the App Store